Biloxi Weather Center

Moon Phase Calendar



Online Cameras

 


      

Current Conditions in D'Iberville
10/29/2020 2:10:39 AM

77°F
Feels Like 79
Clouds
Humidity
94%
Pressure
29.74"
Wind
15 mph (WSW)
Dew Point
75°F
UV Index
6/10 (High)
Visibility
6 mi

Hourly Forecast

Date & Time Thu, Oct 29
2:00 AM
Thu, Oct 29
3:00 AM
Thu, Oct 29
4:00 AM
Thu, Oct 29
5:00 AM
Thu, Oct 29
6:00 AM
Thu, Oct 29
7:00 AM
Thu, Oct 29
8:00 AM
Thu, Oct 29
9:00 AM
Thu, Oct 29
10:00 AM
Thu, Oct 29
11:00 AM
Thu, Oct 29
12:00 PM
Thu, Oct 29
1:00 PM
Thu, Oct 29
2:00 PM
Thu, Oct 29
3:00 PM
Thu, Oct 29
4:00 PM
Thu, Oct 29
5:00 PM
Thu, Oct 29
6:00 PM
Thu, Oct 29
7:00 PM
Thu, Oct 29
8:00 PM
Thu, Oct 29
9:00 PM
Thu, Oct 29
10:00 PM
Thu, Oct 29
11:00 PM
Fri, Oct 30
12:00 AM
Fri, Oct 30
1:00 AM
Fri, Oct 30
2:00 AM
Fri, Oct 30
3:00 AM
Fri, Oct 30
4:00 AM
Fri, Oct 30
5:00 AM
Fri, Oct 30
6:00 AM
Fri, Oct 30
7:00 AM
Fri, Oct 30
8:00 AM
Fri, Oct 30
9:00 AM
Fri, Oct 30
10:00 AM
Fri, Oct 30
11:00 AM
Fri, Oct 30
12:00 PM
Fri, Oct 30
1:00 PM
Fri, Oct 30
2:00 PM
Fri, Oct 30
3:00 PM
Fri, Oct 30
4:00 PM
Fri, Oct 30
5:00 PM
Fri, Oct 30
6:00 PM
Fri, Oct 30
7:00 PM
Fri, Oct 30
8:00 PM
Fri, Oct 30
9:00 PM
Fri, Oct 30
10:00 PM
Fri, Oct 30
11:00 PM
Sat, Oct 31
12:00 AM
Sat, Oct 31
1:00 AM
Condition
Clouds

Clouds

Clouds

Clouds

Clouds

Clouds

Clouds

Clouds

Clouds

Clouds

Clouds

Clouds

Clear

Clear

Clear

Clear

Clear

Clear

Clear

Clear

Clear

Clear

Clear

Clear

Clear

Clear

Clear

Clear

Clear

Clear

Clear

Clear

Clear

Clear

Clear

Clear

Clear

Clear

Clear

Clear

Clear

Clear

Clear

Clear

Clear

Clear

Clear

Clear
Temperature 77°F75°F74°F74°F71°F69°F64°F62°F62°F62°F64°F65°F66°F66°F67°F65°F62°F60°F59°F58°F57°F56°F55°F54°F54°F53°F53°F52°F51°F51°F52°F54°F57°F59°F61°F63°F65°F66°F66°F65°F62°F59°F57°F56°F55°F54°F54°F53°F
Feels Like 79°F79°F77°F73°F67°F65°F58°F54°F53°F53°F55°F56°F57°F58°F59°F58°F55°F53°F51°F50°F49°F48°F48°F48°F47°F47°F46°F45°F44°F44°F45°F47°F50°F54°F56°F59°F61°F62°F62°F60°F57°F54°F52°F51°F50°F49°F49°F48°F
Cloudiness 90%87%72%72%77%81%95%58%39%29%23%19%0%0%0%0%0%0%0%0%0%0%0%0%0%0%0%0%0%1%2%2%2%1%1%1%0%0%0%0%0%0%0%0%0%0%0%0%
Visibility 6 mi6 mi6 mi6 mi6 mi6 mi6 mi6 mi6 mi6 mi6 mi6 mi6 mi6 mi6 mi6 mi6 mi6 mi6 mi6 mi6 mi6 mi6 mi6 mi6 mi6 mi6 mi6 mi6 mi6 mi6 mi6 mi6 mi6 mi6 mi6 mi6 mi6 mi6 mi6 mi6 mi6 mi6 mi6 mi6 mi6 mi6 mi6 mi
Precipitation 7%11%11%4%4%5%0%0%0%0%0%0%0%0%0%0%0%0%0%0%0%0%0%0%0%0%0%0%0%0%0%0%0%0%0%0%0%0%0%0%0%0%0%0%0%0%0%0%
Humidity 94%92%94%90%86%85%80%64%59%55%52%50%51%52%54%56%62%65%66%68%70%72%75%77%79%81%83%84%84%84%81%76%72%68%64%61%58%58%59%61%67%72%75%77%77%79%80%82%
Dew Point 75°F73°F72°F71°F66°F65°F58°F50°F48°F46°F46°F47°F48°F49°F50°F49°F49°F48°F48°F48°F48°F48°F48°F47°F48°F48°F48°F48°F47°F46°F47°F47°F48°F49°F49°F50°F50°F51°F51°F52°F51°F50°F50°F49°F48°F48°F48°F48°F
Pressure 29.74"29.74"29.77"29.77"29.8"29.85"29.88"29.91"29.91"29.91"29.91"29.88"29.88"29.85"29.85"29.88"29.91"29.94"29.97"30"30.03"30.03"30.03"30.03"30.06"30.06"30.06"30.09"30.09"30.12"30.15"30.18"30.18"30.18"30.18"30.15"30.12"30.12"30.09"30.12"30.12"30.15"30.15"30.18"30.18"30.18"30.18"30.18"
Wind Speed 13.8 mph9.3 mph10.3 mph15.8 mph17.3 mph16.8 mph16 mph14 mph14.4 mph14.7 mph13.3 mph15.4 mph15.7 mph13.8 mph14.2 mph13.2 mph11.8 mph11.1 mph12.8 mph13.8 mph13.7 mph13.4 mph11.9 mph10.8 mph10.5 mph10.8 mph12 mph12.5 mph12 mph10.8 mph11.4 mph11.9 mph10.7 mph9.2 mph8.6 mph7.9 mph7.6 mph7.6 mph8.7 mph9.4 mph9.2 mph9 mph8.7 mph8.8 mph8.8 mph8.9 mph8.5 mph8 mph
Wind
Direction
249°
WSW
246°
WSW
233°
SW
246°
WSW
263°
W
267°
W
287°
WNW
287°
WNW
290°
WNW
285°
WNW
275°
W
271°
W
269°
W
270°
W
277°
W
292°
WNW
299°
WNW
307°
NW
318°
NW
323°
NW
330°
NNW
331°
NNW
335°
NNW
337°
NNW
340°
NNW
344°
NNW
349°
N
355°
N

N

N

N
14°
NNE
19°
NNE
13°
NNE
14°
NNE
14°
NNE
10°
N

N

N

N
12°
NNE
15°
NNE
23°
NNE
29°
NNE
32°
NNE
43°
NE
45°
NE
37°
NE

Daily Forecast

Date High Low Precip. Humidity
Today
Oct 29

Rain
77 °F
57 °F
78%
50%
Friday
Oct 30

Clear
66 °F
51 °F
0%
61%
Saturday
Oct 31

Clouds
68 °F
50 °F
0%
61%
Sunday
Nov 1

Clouds
73 °F
58 °F
1%
57%
Monday
Nov 2

Clouds
61 °F
48 °F
0%
39%
Tuesday
Nov 3

Clear
66 °F
43 °F
0%
34%
Wednesday
Nov 4

Clouds
69 °F
51 °F
0%
51%
Thursday
Nov 5

Clouds
73 °F
55 °F
2%
62%
Friday
Nov 6

Clouds
74 °F
59 °F
1%
62%
Saturday
Nov 7

Rain
77 °F
60 °F
100%
76%
Sunday
Nov 8

Rain
78 °F
69 °F
20%
69%
Monday
Nov 9

Rain
74 °F
67 °F
20%
75%
Tuesday
Nov 10

Rain
79 °F
67 °F
54%
70%
Wednesday
Nov 11

Rain
77 °F
70 °F
34%
74%
Thursday
Nov 12

Rain
70 °F
59 °F
52%
67%
Friday
Nov 13

Clear
74 °F
53 °F
0%
58%


Temperature 8-14 Day Outlook



Precipitation 8-14 Day Outlook




Quick Links
Biloxi News
Biloxi Photos
Biloxi Videos




About Us
Contact Us
Site Map
Search Site
Advertise With Us
   
Biloxi.USGulf.info
THE BILOXI WEBSITE

Copyright 2020, Coastal Town
Privacy    |    Legal